Location: Unspecified
(51.6250°N, 0.8230°E)
Time: 12:34:20
(UTC+01:00)

Intercosmos 25 - Visible Passes

Search period start: 22 October 2019 00:00
Search period end: 31 October 2019 23:00
Orbit: 439 x 2877 km, 82.6° (Epoch: 21 October)

Date Brightness Start Highest point End Pass type
(mag) Time Alt. Az. Time Alt. Az. Time Alt. Az.
22 Oct 6.0 03:13:26 10° N 03:20:09 33° ESE 03:25:38 10° SE visible
22 Oct 5.3 05:13:49 10° NNW 05:19:54 34° WSW 05:26:04 10° SSW visible
22 Oct 6.4 18:56:06 10° WNW 18:56:40 10° WNW 18:57:13 10° NW visible
23 Oct 6.5 03:07:49 10° N 03:16:53 23° SE 03:20:28 10° SE visible
23 Oct 6.0 05:08:13 10° NNW 05:16:35 25° SW 05:20:51 10° SSW visible
23 Oct 6.5 18:50:53 10° WNW 18:51:10 10° WNW 18:51:25 10° WNW visible
24 Oct 6.7 03:02:12 10° N 03:13:12 17° SE 03:15:19 10° SE visible
24 Oct 6.6 05:12:54 19° SSW 05:12:54 19° SSW 05:15:39 10° SSW visible
25 Oct 6.8 02:56:35 10° N 03:09:22 12° SE 03:10:10 10° SE visible
25 Oct 6.7 05:09:02 14° SSW 05:09:02 14° SSW 05:10:26 10° SSW visible
26 Oct 6.9 02:50:59 10° N 03:05:25 - SSE 02:51:07 11° N visible
26 Oct 6.8 05:05:05 10° SSW 05:05:05 10° SSW 05:05:14 10° SSW visible
27 Oct 7.0 01:45:22 10° N 02:01:24 - SSE 01:45:25 10° N visible
27 Oct6.904:01:04SSW04:01:04SSW03:44:57NNWvisible
28 Oct 7.1 01:39:46 10° N 01:57:19 - SSE 01:39:47 10° N visible
28 Oct7.003:56:59SSW03:56:59SSW03:39:18NNWvisible
29 Oct 7.1 01:34:09 10° N 01:53:11 - SSE 01:34:10 10° N visible
29 Oct7.003:52:50SSW03:52:50SSW03:33:42NNWvisible
30 Oct 7.1 01:28:34 10° N 01:28:36 10° N 01:28:36 10° N visible
30 Oct7.103:48:41SSW03:48:41SSW03:28:08NNWvisible
31 Oct 7.2 01:22:58 10° N 01:23:03 10° N 01:23:03 10° N visible
